Time,TemperatureF,DewpointF,PressureIn,WindDirection,WindDirectionDegrees,WindSpeedMPH,WindSpeedGustMPH,Humidity,HourlyPrecipIn,Conditions,Clouds,dailyrainin,SoftwareType,DateUTC
2014-04-23 00:00:00,45.3,32.2,29.84,NW,315,7.3,-999.0,60,-99.99,,,0.00,Acu-Link.com,2014-04-23 04:00:00,
2014-04-23 00:16:00,45.1,32.1,29.85,NW,315,8.9,-999.0,60,-99.99,,,0.00,Acu-Link.com,2014-04-23 04:16:00,
2014-04-23 00:31:00,44.8,32.6,29.85,NNW,337,5.3,-999.0,62,-99.99,,,0.00,Acu-Link.com,2014-04-23 04:31:00,
2014-04-23 00:46:00,44.2,32.0,29.85,NNW,337,5.3,-999.0,62,-99.99,,,0.00,Acu-Link.com,2014-04-23 04:46:00,
2014-04-23 01:01:00,43.9,32.5,29.85,NNW,337,6.3,-999.0,64,-99.99,,,0.00,Acu-Link.com,2014-04-23 05:01:00,
2014-04-23 01:16:00,43.9,32.5,29.85,NW,315,7.8,-999.0,64,-99.99,,,0.00,Acu-Link.com,2014-04-23 05:16:00,
2014-04-23 01:31:00,43.7,32.3,29.85,NNW,337,7.3,-999.0,64,-99.99,,,0.00,Acu-Link.com,2014-04-23 05:31:00,
2014-04-23 01:46:00,43.2,31.9,29.85,NNW,337,6.8,-999.0,64,-99.99,,,0.00,Acu-Link.com,2014-04-23 05:46:00,
2014-04-23 02:01:00,42.8,31.5,29.85,NW,315,6.8,-999.0,64,-99.99,,,0.00,Acu-Link.com,2014-04-23 06:01:00,
2014-04-23 02:17:00,42.3,31.4,29.85,NW,315,5.8,-999.0,65,-99.99,,,0.00,Acu-Link.com,2014-04-23 06:17:00,
2014-04-23 02:32:00,41.9,31.4,29.85,NNW,337,5.8,-999.0,66,-99.99,,,0.00,Acu-Link.com,2014-04-23 06:32:00,
2014-04-23 02:47:00,41.4,31.3,29.85,NW,315,6.8,-999.0,67,-99.99,,,0.00,Acu-Link.com,2014-04-23 06:47:00,
2014-04-23 03:02:00,41.2,31.5,29.85,NNW,337,5.8,-999.0,68,-99.99,,,0.00,Acu-Link.com,2014-04-23 07:02:00,
2014-04-23 03:17:00,40.8,31.1,29.86,NW,315,5.8,-999.0,68,-99.99,,,0.00,Acu-Link.com,2014-04-23 07:17:00,
2014-04-23 03:32:00,40.6,31.2,29.86,NNW,337,5.8,-999.0,69,-99.99,,,0.00,Acu-Link.com,2014-04-23 07:32:00,
2014-04-23 03:48:00,39.9,30.6,29.86,West,270,3.2,-999.0,69,-99.99,,,0.00,Acu-Link.com,2014-04-23 07:48:00,
2014-04-23 04:03:00,39.4,30.8,29.86,NW,315,3.7,-999.0,71,-99.99,,,0.00,Acu-Link.com,2014-04-23 08:03:00,
2014-04-23 04:18:00,39.4,30.4,29.86,NW,315,8.3,-999.0,70,-99.99,,,0.00,Acu-Link.com,2014-04-23 08:18:00,
2014-04-23 04:34:00,39.7,30.0,29.87,NW,315,7.8,-999.0,68,-99.99,,,0.00,Acu-Link.com,2014-04-23 08:34:00,
2014-04-23 04:49:00,39.6,29.9,29.87,NW,315,6.3,-999.0,68,-99.99,,,0.00,Acu-Link.com,2014-04-23 08:49:00,
2014-04-23 05:04:00,39.0,29.7,29.87,NW,315,7.8,-999.0,69,-99.99,,,0.00,Acu-Link.com,2014-04-23 09:04:00,
2014-04-23 05:19:00,38.8,29.9,29.88,NNW,337,7.8,-999.0,70,-99.99,,,0.00,Acu-Link.com,2014-04-23 09:19:00,
2014-04-23 05:34:00,38.7,30.1,29.88,NW,315,7.3,-999.0,71,-99.99,,,0.00,Acu-Link.com,2014-04-23 09:34:00,
2014-04-23 05:49:00,38.3,30.1,29.89,NW,315,7.8,-999.0,72,-99.99,,,0.00,Acu-Link.com,2014-04-23 09:49:00,
2014-04-23 06:05:00,37.9,29.7,29.90,NNW,337,9.9,-999.0,72,-99.99,,,0.00,Acu-Link.com,2014-04-23 10:05:00,
2014-04-23 06:20:00,37.6,29.7,29.90,NNW,337,6.3,-999.0,73,-99.99,,,0.00,Acu-Link.com,2014-04-23 10:20:00,
2014-04-23 06:35:00,37.2,29.7,29.91,NW,315,5.8,-999.0,74,-99.99,,,0.00,Acu-Link.com,2014-04-23 10:35:00,
2014-04-23 06:50:00,37.0,29.5,29.92,NW,315,4.7,-999.0,74,-99.99,,,0.00,Acu-Link.com,2014-04-23 10:50:00,
2014-04-23 07:05:00,36.9,29.4,29.93,NNW,337,5.8,-999.0,74,-99.99,,,0.00,Acu-Link.com,2014-04-23 11:05:00,
2014-04-23 07:20:00,37.6,30.1,29.93,NNW,337,6.3,-999.0,74,-99.99,,,0.00,Acu-Link.com,2014-04-23 11:20:00,
2014-04-23 07:35:00,38.3,30.1,29.93,NW,315,8.3,-999.0,72,-99.99,,,0.00,Acu-Link.com,2014-04-23 11:35:00,
2014-04-23 07:50:00,38.8,30.2,29.95,NNW,337,9.4,-999.0,71,-99.99,,,0.00,Acu-Link.com,2014-04-23 11:50:00,
2014-04-23 08:05:00,39.2,30.3,29.95,NNW,337,10.9,-999.0,70,-99.99,,,0.00,Acu-Link.com,2014-04-23 12:05:00,
2014-04-23 08:20:00,40.5,30.8,29.96,NW,315,10.9,-999.0,68,-99.99,,,0.00,Acu-Link.com,2014-04-23 12:20:00,
2014-04-23 08:35:00,41.2,30.7,29.96,NW,315,7.3,-999.0,66,-99.99,,,0.00,Acu-Link.com,2014-04-23 12:35:00,
2014-04-23 08:51:00,41.9,31.4,29.96,NNW,337,6.8,-999.0,66,-99.99,,,0.00,Acu-Link.com,2014-04-23 12:51:00,
2014-04-23 09:06:00,42.4,31.5,29.97,NNW,337,6.8,-999.0,65,-99.99,,,0.00,Acu-Link.com,2014-04-23 13:06:00,
2014-04-23 09:21:00,43.2,31.5,29.97,WNW,292,6.8,-999.0,63,-99.99,,,0.00,Acu-Link.com,2014-04-23 13:21:00,
2014-04-23 09:36:00,43.2,32.2,29.97,NW,315,10.9,-999.0,65,-99.99,,,0.00,Acu-Link.com,2014-04-23 13:36:00,
2014-04-23 09:51:00,43.5,31.0,29.97,NW,315,6.8,-999.0,61,-99.99,,,0.00,Acu-Link.com,2014-04-23 13:51:00,
2014-04-23 10:06:00,46.0,32.9,29.97,NNW,337,7.3,-999.0,60,-99.99,,,0.00,Acu-Link.com,2014-04-23 14:06:00,
2014-04-23 10:21:00,46.9,32.9,29.97,NW,315,7.8,-999.0,58,-99.99,,,0.00,Acu-Link.com,2014-04-23 14:21:00,
2014-04-23 10:37:00,47.8,32.9,29.97,NW,315,5.8,-999.0,56,-99.99,,,0.00,Acu-Link.com,2014-04-23 14:37:00,
2014-04-23 10:52:00,48.7,33.7,29.97,NNE,22,4.2,-999.0,56,-99.99,,,0.00,Acu-Link.com,2014-04-23 14:52:00,
2014-04-23 11:07:00,49.6,34.1,29.98,North,0,4.2,-999.0,55,-99.99,,,0.00,Acu-Link.com,2014-04-23 15:07:00,
2014-04-23 11:22:00,53.1,35.9,29.97,WNW,292,5.8,-999.0,52,-99.99,,,0.00,Acu-Link.com,2014-04-23 15:22:00,
2014-04-23 11:37:00,53.2,35.5,29.97,SW,225,5.3,-999.0,51,-99.99,,,0.00,Acu-Link.com,2014-04-23 15:37:00,
2014-04-23 11:52:00,54.1,36.4,29.97,North,0,5.3,-999.0,51,-99.99,,,0.00,Acu-Link.com,2014-04-23 15:52:00,
2014-04-23 12:07:00,54.7,35.4,29.97,NW,315,8.9,-999.0,48,-99.99,,,0.00,Acu-Link.com,2014-04-23 16:07:00,
2014-04-23 12:23:00,54.5,36.2,29.98,NNW,337,8.3,-999.0,50,-99.99,,,0.00,Acu-Link.com,2014-04-23 16:23:00,
2014-04-23 12:38:00,53.4,36.2,29.97,WNW,292,4.7,-999.0,52,-99.99,,,0.00,Acu-Link.com,2014-04-23 16:38:00,
2014-04-23 12:53:00,57.7,37.1,29.97,NW,315,8.3,-999.0,46,-99.99,,,0.00,Acu-Link.com,2014-04-23 16:53:00,
2014-04-23 13:08:00,55.9,36.0,29.96,NW,315,6.8,-999.0,47,-99.99,,,0.00,Acu-Link.com,2014-04-23 17:08:00,
2014-04-23 13:23:00,56.8,36.8,29.95,NNE,22,2.2,-999.0,47,-99.99,,,0.00,Acu-Link.com,2014-04-23 17:23:00,
2014-04-23 13:38:00,57.6,37.0,29.95,NW,315,9.4,-999.0,46,-99.99,,,0.00,Acu-Link.com,2014-04-23 17:38:00,
2014-04-23 13:53:00,56.7,36.2,29.95,NNW,337,10.9,-999.0,46,-99.99,,,0.00,Acu-Link.com,2014-04-23 17:53:00,
2014-04-23 14:09:00,58.5,37.2,29.95,WNW,292,4.2,-999.0,45,-99.99,,,0.00,Acu-Link.com,2014-04-23 18:09:00,
2014-04-23 14:24:00,59.5,38.1,29.94,NNE,22,2.7,-999.0,45,-99.99,,,0.00,Acu-Link.com,2014-04-23 18:24:00,
2014-04-23 14:39:00,58.6,37.3,29.94,NNW,337,5.8,-999.0,45,-99.99,,,0.00,Acu-Link.com,2014-04-23 18:39:00,
2014-04-23 14:55:00,61.5,37.6,29.93,NW,315,3.2,-999.0,41,-99.99,,,0.00,Acu-Link.com,2014-04-23 18:55:00,
2014-04-23 15:10:00,59.7,37.2,29.93,North,0,4.7,-999.0,43,-99.99,,,0.00,Acu-Link.com,2014-04-23 19:10:00,
2014-04-23 15:25:00,62.2,38.8,29.93,NW,315,3.2,-999.0,42,-99.99,,,0.00,Acu-Link.com,2014-04-23 19:25:00,
2014-04-23 15:40:00,62.2,37.6,29.92,NNW,337,8.9,-999.0,40,-99.99,,,0.00,Acu-Link.com,2014-04-23 19:40:00,
2014-04-23 15:55:00,62.6,38.6,29.92,NNW,337,6.8,-999.0,41,-99.99,,,0.00,Acu-Link.com,2014-04-23 19:55:00,
2014-04-23 16:11:00,61.2,37.9,29.92,North,0,7.8,-999.0,42,-99.99,,,0.00,Acu-Link.com,2014-04-23 20:11:00,
2014-04-23 16:26:00,61.3,36.8,29.91,NNE,22,4.2,-999.0,40,-99.99,,,0.00,Acu-Link.com,2014-04-23 20:26:00,
2014-04-23 16:41:00,61.3,36.8,29.90,NNE,22,4.7,-999.0,40,-99.99,,,0.00,Acu-Link.com,2014-04-23 20:41:00,
2014-04-23 16:57:00,62.1,37.5,29.90,NNW,337,6.3,-999.0,40,-99.99,,,0.00,Acu-Link.com,2014-04-23 20:57:00,
2014-04-23 17:12:00,62.1,37.5,29.89,WNW,292,4.2,-999.0,40,-99.99,,,0.00,Acu-Link.com,2014-04-23 21:12:00,
2014-04-23 17:27:00,62.4,37.1,29.89,NE,45,2.7,-999.0,39,-99.99,,,0.00,Acu-Link.com,2014-04-23 21:27:00,
2014-04-23 17:42:00,63.1,37.7,29.89,NW,315,9.4,-999.0,39,-99.99,,,0.00,Acu-Link.com,2014-04-23 21:42:00,
2014-04-23 17:58:00,62.2,37.6,29.90,WNW,292,5.8,-999.0,40,-99.99,,,0.00,Acu-Link.com,2014-04-23 21:58:00,
2014-04-23 18:13:00,59.9,36.8,29.90,NNW,337,6.8,-999.0,42,-99.99,,,0.00,Acu-Link.com,2014-04-23 22:13:00,
2014-04-23 18:28:00,62.8,38.1,29.90,NNE,22,7.3,-999.0,40,-99.99,,,0.00,Acu-Link.com,2014-04-23 22:28:00,
2014-04-23 18:43:00,61.7,37.1,29.90,North,0,5.8,-999.0,40,-99.99,,,0.00,Acu-Link.com,2014-04-23 22:43:00,
2014-04-23 18:58:00,61.2,36.7,29.90,WSW,247,3.2,-999.0,40,-99.99,,,0.00,Acu-Link.com,2014-04-23 22:58:00,
2014-04-23 19:13:00,59.7,36.0,29.90,NNE,22,3.2,-999.0,41,-99.99,,,0.00,Acu-Link.com,2014-04-23 23:13:00,
2014-04-23 19:28:00,59.7,36.6,29.91,NNW,337,6.3,-999.0,42,-99.99,,,0.00,Acu-Link.com,2014-04-23 23:28:00,
2014-04-23 19:43:00,58.6,37.3,29.91,NNW,337,4.7,-999.0,45,-99.99,,,0.00,Acu-Link.com,2014-04-23 23:43:00,
2014-04-23 19:59:00,56.7,36.2,29.92,NNW,337,3.7,-999.0,46,-99.99,,,0.00,Acu-Link.com,2014-04-23 23:59:00,
2014-04-23 20:14:00,54.7,35.9,29.93,NNW,337,3.7,-999.0,49,-99.99,,,0.00,Acu-Link.com,2014-04-24 00:14:00,
2014-04-23 20:29:00,53.4,35.2,29.94,North,0,2.2,-999.0,50,-99.99,,,0.00,Acu-Link.com,2014-04-24 00:29:00,
2014-04-23 20:44:00,52.5,34.9,29.95,NNW,337,2.7,-999.0,51,-99.99,,,0.00,Acu-Link.com,2014-04-24 00:44:00,
2014-04-23 20:59:00,50.9,36.2,29.96,NNW,337,2.7,-999.0,57,-99.99,,,0.00,Acu-Link.com,2014-04-24 00:59:00,